Weather History for KPLN - February, 2014

Change the Weather History Date:

Thursday, February 27, 2014

  Actual Average Record
Temperature  
Mean Temperature -10 °F -  
Max Temperature 6 °F 32 °F 46 °F (1983)
Min Temperature -27 °F 10 °F -27 °F (2014)
Degree Days  
Heating Degree Days 75    
Moisture  
Dew Point -13 °F    
Average Humidity 65    
Maximum Humidity 80    
Minimum Humidity 51    
Precipitation  
Precipitation 0.01 in - - ()
Sea Level Pressure  
Sea Level Pressure 29.87 in    
Wind  
Wind Speed 20 mph (NW)    
Max Wind Speed 32 mph    
Max Gust Speed 43 mph    
Visibility 4 miles    
Events Snow    
Averages and records for this station are not official NWS values.
T = Trace of Precipitation, MM = Missing Value Source: NWS Daily Summary

Daily Weather History Graph

Daily Weather History Graph

Search for Another Location

Airport or City:

Trip Planner

Search our weather history database for the weather conditions in past years. The results will help you decide how hot, cold, wet, or windy it might be!

Date:

Astronomy

Feb. 27, 2014 Rise Set
Actual Time 7:21 AM EST 6:23 PM EST
Civil Twilight 6:51 AM EST 6:53 PM EST
Nautical Twilight 6:16 AM EST 7:27 PM EST
Astronomical Twilight 5:42 AM EST 8:01 PM EST
Moon 5:56 AM EST (2/27) 4:45 PM EST (2/27)
Length of Visible Light 12h 01m
Length of Day
11h 02m
Waning Crescent, 4% of the Moon is Illuminated
Feb 27
Waning Crescent
Mar 1
New
Mar 8
First Quarter
Mar 16
Full
Mar 23
Last Quarter

Hourly Weather History & Observations

Time (EST) Temp. Windchill Dew Point Humidity Pressure Visibility Wind Dir Wind Speed Gust Speed Precip Events Conditions
12:33 AM 6.1 °F -11.6 °F -0.0 °F 76% 29.44 in 2.5 mi NNW 15.0 mph - 0.00 in Snow Light Snow
12:40 AM 5.0 °F -13.6 °F -0.0 °F 80% 29.45 in 3.0 mi NNW 16.1 mph - 0.00 in Snow Light Snow
12:54 AM 5.0 °F -11.6 °F -0.9 °F 76% 29.50 in 8.0 mi NNW 12.7 mph - 0.00 in   Overcast
1:54 AM 3.0 °F -15.5 °F -5.1 °F 69% 29.52 in 10.0 mi NNW 15.0 mph - N/A   Overcast
2:54 AM 1.0 °F -14.9 °F -7.1 °F 69% 29.56 in 10.0 mi NW 10.4 mph - N/A   Overcast
3:54 AM -2.0 °F -25.0 °F -11.0 °F 66% 29.58 in 5.0 mi NW 20.7 mph 29.9 mph N/A   Haze
4:54 AM -2.9 °F -24.4 °F -13.0 °F 62% 29.62 in 8.0 mi WNW 17.3 mph 27.6 mph N/A   Clear
5:54 AM -2.9 °F -25.0 °F -13.0 °F 62% 29.64 in 6.0 mi WNW 18.4 mph - N/A   Haze
6:23 AM -2.9 °F -26.1 °F -11.0 °F 68% 29.60 in 2.5 mi WNW 20.7 mph 29.9 mph N/A   Haze
6:43 AM -2.9 °F -29.0 °F -11.0 °F 68% 29.62 in 1.2 mi WNW 27.6 mph 38.0 mph 0.00 in   Overcast
6:54 AM -4.0 °F -29.1 °F -11.0 °F 72% 29.69 in 1.2 mi WNW 24.2 mph 36.8 mph 0.00 in   Mostly Cloudy
7:06 AM -4.0 °F -28.6 °F -11.0 °F 72% 29.63 in 2.0 mi WNW 23.0 mph 34.5 mph 0.00 in   Mostly Cloudy
7:22 AM -4.0 °F -28.6 °F -11.0 °F 72% 29.65 in 1.0 mi WNW 23.0 mph 36.8 mph 0.00 in   Unknown
7:42 AM -4.0 °F -29.6 °F -9.9 °F 76% 29.67 in 0.8 mi WNW 25.3 mph 34.5 mph 0.00 in   Overcast
7:54 AM -4.0 °F -29.6 °F -9.9 °F 76% 29.74 in 0.8 mi WNW 25.3 mph 38.0 mph 0.00 in   Overcast
8:54 AM -4.0 °F -30.0 °F -11.0 °F 72% 29.80 in 0.8 mi NW 26.5 mph 36.8 mph 0.00 in   Unknown
9:19 AM -4.0 °F -28.6 °F -9.9 °F 76% 29.76 in 1.0 mi NW 23.0 mph 31.1 mph 0.00 in   Unknown
9:33 AM -2.9 °F -27.2 °F -11.0 °F 68% 29.77 in 0.8 mi NW 23.0 mph 34.5 mph 0.00 in   Unknown
9:54 AM -2.9 °F -28.1 °F -11.0 °F 68% 29.85 in 0.8 mi NW 25.3 mph 36.8 mph 0.00 in   Overcast
10:04 AM -4.0 °F -30.9 °F -11.9 °F 69% 29.80 in 1.0 mi NW 28.8 mph 34.5 mph 0.00 in   Overcast
10:10 AM -4.0 °F -30.4 °F -11.0 °F 72% 29.80 in 0.5 mi NW 27.6 mph 41.4 mph 0.00 in   Mostly Cloudy
10:21 AM -2.9 °F -30.5 °F -11.0 °F 68% 29.81 in 0.5 mi NW 32.2 mph 42.6 mph 0.00 in   Mostly Cloudy
10:52 AM -2.2 °F -29.6 °F -11.2 °F 66% 29.83 in 0.5 mi NW 32.2 mph 39.1 mph 0.01 in   Mostly Cloudy
10:54 AM -2.9 °F -30.2 °F -11.0 °F 68% 29.90 in 0.5 mi NW 31.1 mph 38.0 mph 0.01 in Snow Snow
11:11 AM -2.9 °F -29.0 °F -9.9 °F 72% 29.85 in 0.8 mi NW 27.6 mph 38.0 mph 0.00 in   Overcast
11:46 AM -2.0 °F -27.8 °F -11.9 °F 63% 29.89 in 1.2 mi WNW 27.6 mph 34.5 mph 0.00 in   Mostly Cloudy
11:54 AM -2.0 °F -25.5 °F -11.0 °F 66% 29.95 in 1.8 mi WNW 21.9 mph 33.4 mph 0.00 in   Mostly Cloudy
12:54 PM -2.0 °F -27.3 °F -11.0 °F 66% 29.99 in 1.0 mi NW 26.5 mph 40.3 mph 0.00 in   Haze
1:12 PM -0.9 °F -24.5 °F -11.9 °F 60% 29.94 in 2.0 mi NW 23.0 mph 29.9 mph 0.00 in   Haze
1:21 PM -0.9 °F -25.5 °F -13.0 °F 57% 29.95 in 3.0 mi NW 25.3 mph 32.2 mph 0.00 in   Haze
1:27 PM -0.9 °F -25.9 °F -13.0 °F 57% 29.95 in 1.8 mi NW 26.5 mph 32.2 mph 0.00 in   Haze
1:37 PM -0.9 °F -25.0 °F -13.0 °F 57% 29.96 in 2.5 mi NW 24.2 mph 32.2 mph 0.00 in   Haze
1:54 PM -0.9 °F -25.0 °F -14.1 °F 54% 30.03 in 3.0 mi WNW 24.2 mph 29.9 mph 0.00 in   Haze
2:04 PM -0.9 °F -24.1 °F -14.1 °F 54% 29.97 in 2.5 mi NW 21.9 mph 33.4 mph 0.00 in   Scattered Clouds
2:22 PM -0.9 °F -24.5 °F -14.1 °F 54% 29.98 in 4.0 mi WNW 23.0 mph 31.1 mph 0.00 in   Haze
2:33 PM -0.9 °F -24.5 °F -14.1 °F 54% 29.98 in 2.0 mi WNW 23.0 mph 32.2 mph 0.00 in   Haze
2:47 PM -0.9 °F -25.5 °F -14.1 °F 54% 29.99 in 3.0 mi NW 25.3 mph 33.4 mph 0.00 in   Haze
2:54 PM -0.9 °F -23.5 °F -14.1 °F 54% 30.06 in 2.0 mi NW 20.7 mph 33.4 mph 0.00 in   Haze
3:04 PM -0.9 °F -25.0 °F -15.0 °F 52% 30.00 in 3.0 mi WNW 24.2 mph 29.9 mph N/A   Haze
3:19 PM -2.0 °F -26.9 °F -14.1 °F 57% 30.01 in 4.0 mi NW 25.3 mph 31.1 mph N/A   Haze
3:54 PM -0.9 °F -23.5 °F -14.1 °F 54% 30.10 in 6.0 mi WNW 20.7 mph 25.3 mph N/A   Haze
4:54 PM -2.9 °F -25.6 °F -17.0 °F 51% 30.14 in 10.0 mi WNW 19.6 mph 25.3 mph N/A   Scattered Clouds
5:54 PM -4.0 °F -23.7 °F -18.0 °F 51% 30.16 in 10.0 mi WNW 13.8 mph - N/A   Clear
6:54 PM -7.1 °F -23.9 °F -18.9 °F 56% 30.19 in 10.0 mi WNW 9.2 mph - N/A   Clear
7:54 PM -11.0 °F -26.2 °F -22.0 °F 58% 30.21 in 10.0 mi NW 6.9 mph - N/A   Clear
8:54 PM -16.1 °F - -23.1 °F 71% 30.22 in 10.0 mi Calm Calm - N/A   Clear
9:54 PM -23.1 °F - -27.9 °F 78% 30.25 in 10.0 mi Calm Calm - N/A   Clear
10:54 PM -26.0 °F - -31.0 °F 77% 30.27 in 10.0 mi Calm Calm - N/A   Clear
11:54 PM -27.9 °F - -33.0 °F 77% 30.29 in 10.0 mi Calm Calm - N/A   Clear